Weather Roundup
Issued by NWS Chicago, IL

Home | Current Version | Previous Version | Graphics & Text | Print | Product List | Glossary On
Versions: 1 2 3 4 5 6 7 8 9 10 11 12 13 14 15 16 17 18 19 20 21 22 23 24 25 26 27 28 29 30 31 32 33 34 35 36 37 38 39 40 41 42 43 44 45 46 47 48 49 50
000
NZUS59 KLOT 031321
HRRLOT

CHICAGO AREA WEATHER ROUNDUP
NATIONAL WEATHER SERVICE CHICAGO/ROMEOVILLE IL
800 AM CDT THU SEP 03 2015

NOTE: "FAIR" INDICATES FEW OR NO CLOUDS BELOW 12,000 FEET WITH NO
SIGNIFICANT WEATHER AND/OR OBSTRUCTIONS TO VISIBILITY.

* THESE STATIONS ARE NOT UNDER NWS QUALITY CONTROL. THEY ALSO MAY NOT
  REPORT WEATHER SUCH AS PRECIPITATION OR FOG.

ILZ005-006-012>014-019>023-031400-
NORTHEAST ILLINOIS

CITY           SKY/WX    TMP DP  RH WIND       PRES   REMARKS
OHARE          MOSUNNY   75  68  78 SW7       29.96R
MIDWAY         MOSUNNY   78  67  68 SW9       29.96S HX  80
AURORA         SUNNY     73  68  84 SW6       29.98S HAZE
LANSING*       SUNNY     76  68  77 SW6       29.98S
JOLIET*        SUNNY     74  70  85 SW3       29.97F
WAUKEGAN       SUNNY     75  69  81 SW10      29.94S
DUPAGE AIRPORT SUNNY     74  68  81 SW7       29.97R
WHEELING       SUNNY     76  68  76 SW5       29.97R
KANKAKEE*      SUNNY     74  70  87 SW6       30.00S
MORRIS*        SUNNY     73  68  87 SW3       29.97S
LEWIS AIRPORT* SUNNY     73  68  83 SW6       29.98S
NORTHERLY IS     N/A     77  65  66 SW12        N/A
$$

WIZ051-052-058>065-066-070>072-031400-
SOUTHEAST WISCONSIN

CITY           SKY/WX    TMP DP  RH WIND       PRES   REMARKS
MILWAUKEE      PTSUNNY   74  67  78 SW9       29.92R
KENOSHA*       MOSUNNY   75  69  81 SW12      29.94S
RACINE*        MOSUNNY   74  67  78 SW8       29.94S
BURLINGTON     SUNNY     70  68  94 SW6       29.94S
WAUKESHA       MOSUNNY   70  66  88 SW6       29.95R
WEST BEND      PTSUNNY   72  66  83 SW6       29.92F
$$

INZ001>003-010>013-019-020-031400-
NORTHWEST INDIANA

CITY           SKY/WX    TMP DP  RH WIND       PRES   REMARKS
GARY*          SUNNY     75  66  73 S5        29.98S
MICHIGAN CITY* NOT AVBL
RENSSELAER*    NOT AVBL
VALPARAISO     SUNNY     74  68  81 SW9       29.99F
$$

LMZ740>746-031400-
SOUTHERN LAKE MICHIGAN

STATION/POSITION TIME  SKY/WX   TEMP WIND        PRES    VSBY
                                AIR  DIR/SP/G
                 (UTC)          (F)  (DEG/KT/KT) (MB)    (MI)
HARRISON CRIB    1300            78  240/ 11/ 14   N/A
BURNHAM HARBOR   1300            77  240/  9/ 10   N/A
CALUMET HARBOR   1200            74  200/  6/  8   N/A
BURNS HARBOR     1200            74  190/  8/ 10 1015.2S
MICHIGAN CITY    1300            75  180/  9/ 11   N/A
$$

ABBREVIATIONS USED IN REMARKS
   TC - TEMPERATURE IN CELSIUS
  WCI - WIND CHILL INDEX
   HX - HEAT INDEX
  VSB - VISIBILITY
$$


USA.gov is the U.S. government's official web portal to all federal, state and local government web resources and services.